Sterling, IL

6:53 PM CST on November 21, 2019 (GMT -0600)
Whiteside County-Bittorf

Weather History for KSQI - September, 2019

Change the Weather History Date:

Sunday, September 8, 2019

  Actual Average Record
Temperature  
Mean Temperature 63 °F -  
Max Temperature 66 °F 76 °F 91 °F (2002)
Min Temperature 60 °F 53 °F 48 °F (2010)
Degree Days  
Heating Degree Days 2    
Growing Degree Days 13 (Base 50)    
Moisture  
Dew Point 60 °F    
Average Humidity 91    
Maximum Humidity 100    
Minimum Humidity 83    
Precipitation  
Precipitation 0.07 in - - ()
Sea Level Pressure  
Sea Level Pressure 29.86 in    
Wind  
Wind Speed 8 mph ()    
Max Wind Speed 14 mph    
Max Gust Speed -    
Visibility 8.3 miles    
Events Rain    
Averages and records for this station are not official NWS values.
T = Trace of Precipitation, MM = Missing Value Source: Averaged Metar Reports

Daily Weather History Graph

Daily Weather History Graph

Search for Another Location

Airport or City:

Astronomy

Sep. 08, 2019 Rise Set
Actual Time 6:31 AM CDT 7:20 PM CDT
Civil Twilight 6:03 AM CDT 7:48 PM CDT
Nautical Twilight 5:29 AM CDT 8:22 PM CDT
Astronomical Twilight 4:55 AM CDT 8:56 PM CDT
Moon 4:33 PM CDT (9/8) 1:06 AM CDT (9/8)
Length of Visible Light 13h 45m
Length of Day
12h 48m
Waxing Gibbous, 75% of the Moon is Illuminated
Sep 8
Waxing Gibbous
Sep 13
Full
Sep 21
Last Quarter
Sep 28
New
Oct 5
First Quarter

Hourly Weather History & Observations

Time (CDT) Temp. Dew Point Humidity Pressure Visibility Wind Dir Wind Speed Gust Speed Precip Events Conditions
12:56 AM 64.0 °F 60.1 °F 87% 29.65 in 10.0 mi NNE 4.6 mph - 0.01 in Rain Light Rain
2:56 AM 62.1 °F 60.1 °F 93% 29.65 in 10.0 mi East 6.9 mph - N/A   Overcast
3:56 AM 63.0 °F 61.0 °F 93% 29.67 in 10.0 mi East 4.6 mph - N/A   Overcast
4:42 AM 62.6 °F 60.8 °F 94% 30.08 in 10.0 mi ESE 3.5 mph - N/A   Overcast
4:56 AM 63.0 °F 61.0 °F 93% - 2.5 mi North - - 0.02 in Rain Rain
5:04 AM 62.6 °F 60.8 °F 94% - 2.5 mi North - - N/A Rain Rain
5:13 AM - - N/A% - 3.0 mi North - - N/A Rain Rain
5:56 AM - - N/A% - 5.0 mi North - - N/A Rain Rain
6:56 AM 60.1 °F 60.1 °F 100% - 9.0 mi ENE 8.1 mph - N/A Rain Light Rain
7:27 AM 60.8 °F 60.8 °F 100% 30.08 in 8.0 mi ENE 6.9 mph - 0.01 in Rain Light Rain
7:56 AM 61.0 °F 60.1 °F 97% 29.68 in 10.0 mi ENE 8.1 mph - 0.02 in Rain Light Rain
8:10 AM 60.8 °F 60.8 °F 100% 30.08 in 10.0 mi ENE 8.1 mph - 0.00 in Rain Light Rain
8:23 AM 60.8 °F 60.8 °F 100% - 4.0 mi North - - 0.01 in Rain Light Rain
8:56 AM 61.0 °F 61.0 °F 100% 29.69 in 10.0 mi East 10.4 mph - 0.01 in Rain Light Rain
9:34 AM 60.8 °F 60.8 °F 100% 30.11 in 10.0 mi East 8.1 mph - 0.01 in   Overcast
9:56 AM 61.0 °F 60.1 °F 97% - 2.5 mi North - - 0.01 in Rain Light Rain
10:06 AM 60.8 °F 60.8 °F 100% - 1.8 mi North - - N/A Rain Light Rain
10:19 AM - - N/A% - 2.0 mi North - - N/A Rain Light Rain
10:44 AM - - N/A% - 6.0 mi North - - N/A   Unknown
10:56 AM - - N/A% - 10.0 mi North - - N/A   Unknown
11:41 AM 62.6 °F 60.8 °F 94% 30.10 in 10.0 mi East 12.7 mph - N/A   Overcast
11:56 AM 64.0 °F 61.0 °F 90% 29.71 in 10.0 mi East 12.7 mph - N/A   Overcast
12:04 PM 64.4 °F 60.8 °F 88% 30.10 in 10.0 mi East 11.5 mph - N/A   Overcast
12:56 PM 66.0 °F 62.1 °F 87% 29.70 in 10.0 mi East 12.7 mph - N/A   Overcast
1:56 PM 66.0 °F 61.0 °F 84% 29.69 in 10.0 mi East 11.5 mph - N/A   Overcast
2:56 PM 66.0 °F 61.0 °F 84% 29.69 in 10.0 mi East 13.8 mph - N/A   Overcast
3:11 PM 66.2 °F 60.8 °F 83% 30.08 in 10.0 mi East 12.7 mph - N/A   Overcast
3:56 PM 66.0 °F 61.0 °F 84% 29.67 in 10.0 mi East 13.8 mph - N/A   Overcast
4:56 PM 64.9 °F 60.1 °F 84% 29.68 in 10.0 mi East 11.5 mph - N/A   Overcast
5:56 PM 64.0 °F 60.1 °F 87% 30.10 in 10.0 mi East 11.5 mph - N/A   Overcast
6:11 PM 64.4 °F 60.8 °F 88% 30.10 in 10.0 mi East 13.8 mph - N/A   Overcast
6:27 PM 64.4 °F 60.8 °F 88% 30.10 in 10.0 mi East 9.2 mph - N/A   Overcast
6:56 PM 64.0 °F 60.1 °F 87% 29.70 in 10.0 mi East 9.2 mph - N/A   Overcast
7:56 PM 63.0 °F 60.1 °F 90% 29.72 in 10.0 mi East 6.9 mph - N/A   Overcast
8:56 PM 62.1 °F 59.0 °F 90% 29.74 in 10.0 mi East 8.1 mph - N/A   Overcast
9:56 PM 62.1 °F 57.9 °F 86% 29.75 in 10.0 mi ENE 6.9 mph - N/A   Overcast
10:56 PM 61.0 °F 57.0 °F 87% 30.12 in 10.0 mi East 12.7 mph - N/A   Overcast
11:56 PM 61.0 °F 55.9 °F 83% 29.74 in 10.0 mi East 5.8 mph - N/A   Overcast